Live-Position
3D-Globus wird geladen...
Über Starlink 3856
Group: 3 satellites
Beschreibung wird geladen...
Nächste Überflüge
Passes for default location (London). Set your location on the main map for personalized predictions.
Höhenverlauf
Loading altitude history...
No altitude history available
Zweizeiliger Elementsatz
1 52459U 22049J 26122.86042543 -.00000079 00000-0 13145-4 0 9992
2 52459 53.2166 175.9408 0001282 87.2865 272.8274 15.08837830220428
Epoch: 2. Mai 2026 •
Age: 10 hours
Aktueller Status
Höhe 548.4 km
Geschwindigkeit 7.59 km/s
Subsatellitenpunkt -27.26°S,
48.27°E
Startdatum 6. Mai 2022
Alter 3.9 years
Typ internet
Startgruppe
Falcon 9 •
Group 4-17 •
48 satellites
Starlink 3870
52451
Starlink 3909 52452
Starlink 3872 52453
Starlink 3888 52454
Starlink 3890 52455
Starlink 3896 52456
Starlink 3899 52457
Starlink 3898 52458
Starlink 3900 52461
Starlink 3903 52462
Starlink 3885 52463
Starlink 3904 52464
Starlink 3863 52465
Starlink 3873 52467
Starlink 3864 52468
Starlink 3828 52469
Starlink 3859 52470
Starlink 3862 52471
Starlink 3881 52472
Starlink 3879 52473
...and 27 more
Technische Details
Klassifizierung Payload
Masse 297.00 kg
Trockenmasse 220.00 kg
Gesamtmasse 297.00 kg
Länge 0.20 m
Durchmesser 2.80 m
Spannweite 9.00 m
Form Box + pan
Hersteller SPXS
Bus-Typ Starlink
Phasenstatus In Orbit
Besitzer/Staat SPXS/US
Most Searched
Loading...